Hourly Weather Changchi

Today, 12 June, Saturday

Time Temperature Precipitation Wind Pressure Humidity
00:00 +23°C° 0 mm 1 mps 702 mmHg 84%
01:00 +23°C° 0 mm 1 mps 702 mmHg 85%
02:00 +23°C° 0 mm 1 mps 702 mmHg 86%
03:00 +22°C° 0 mm 1 mps 701 mmHg 86%
04:00 +22°C° 0 mm 1 mps 701 mmHg 86%
05:00 +21°C° 0 mm 0 mps 702 mmHg 84%
06:00 +22°C° 0 mm 0 mps 702 mmHg 82%
07:00 +22°C° 0 mm 0 mps 702 mmHg 81%
08:00 +23°C° 0.1 mm 0 mps 702 mmHg 80%
09:00 +23°C° 0.1 mm 0 mps 702 mmHg 80%
10:00 +24°C° 0.1 mm 0 mps 702 mmHg 79%
11:00 +24°C° 0 mm 0 mps 702 mmHg 79%
12:00 +24°C° 0 mm 0 mps 701 mmHg 78%
13:00 +24°C° 0 mm 0 mps 701 mmHg 79%
14:00 +25°C° 0 mm 0 mps 701 mmHg 75%
15:00 +26°C° 0 mm 0 mps 700 mmHg 70%
16:00 +29°C° 0 mm 1 mps 700 mmHg 65%
17:00 +25°C° 0 mm 0 mps 700 mmHg 72%
18:00 +24°C° 0 mm 0 mps 700 mmHg 78%
19:00 +23°C° 0 mm 0 mps 700 mmHg 84%
20:00 +23°C° 0 mm 0 mps 700 mmHg 85%
21:00 +23°C° 0 mm 0 mps 700 mmHg 86%
22:00 +24°C° 0 mm 1 mps 700 mmHg 88%
23:00 +24°C° 0.1 mm 1 mps 700 mmHg 88%

Tomorrow, 13 June, Sunday

Time Temperature Precipitation Wind Pressure Humidity
00:00 +24°C° 0.1 mm 1 mps 700 mmHg 89%
01:00 +24°C° 0.1 mm 1 mps 699 mmHg 89%
02:00 +24°C° 1.1 mm 1 mps 699 mmHg 91%
03:00 +24°C° 1.1 mm 1 mps 699 mmHg 94%
04:00 +24°C° 1.1 mm 1 mps 698 mmHg 96%
05:00 +24°C° 7.8 mm 1 mps 699 mmHg 97%
06:00 +22°C° 7.8 mm 0 mps 699 mmHg 97%
07:00 +22°C° 7.8 mm 0 mps 699 mmHg 98%
08:00 +22°C° 2.3 mm 0 mps 699 mmHg 97%
09:00 +22°C° 2.3 mm 0 mps 699 mmHg 96%
10:00 +22°C° 2.3 mm 0 mps 699 mmHg 96%
11:00 +23°C° 0.6 mm 0 mps 699 mmHg 93%
12:00 +26°C° 0.6 mm 1 mps 699 mmHg 90%
13:00 +27°C° 0.6 mm 1 mps 698 mmHg 87%
14:00 +26°C° 1.1 mm 1 mps 698 mmHg 89%
15:00 +26°C° 1.1 mm 1 mps 697 mmHg 91%
16:00 +26°C° 1.1 mm 1 mps 697 mmHg 93%
17:00 +25°C° 0.5 mm 1 mps 697 mmHg 93%
18:00 +25°C° 0.5 mm 1 mps 697 mmHg 94%
19:00 +25°C° 0.5 mm 1 mps 697 mmHg 94%
20:00 +24°C° 0.4 mm 1 mps 697 mmHg 94%
21:00 +24°C° 0.4 mm 1 mps 697 mmHg 95%
22:00 +24°C° 0.4 mm 1 mps 698 mmHg 95%
23:00 +24°C° 1 mm 1 mps 697 mmHg 95%

Day after tomorrow, 14 June, Monday

Time Temperature Precipitation Wind Pressure Humidity
00:00 +24°C° 1 mm 1 mps 697 mmHg 96%
01:00 +24°C° 1 mm 1 mps 696 mmHg 96%
02:00 +24°C° 1.2 mm 1 mps 696 mmHg 96%
03:00 +24°C° 1.2 mm 1 mps 695 mmHg 96%
04:00 +24°C° 1.2 mm 1 mps 695 mmHg 96%
05:00 +24°C° 1.1 mm 1 mps 695 mmHg 96%
06:00 +24°C° 1.1 mm 1 mps 695 mmHg 96%
07:00 +24°C° 1.1 mm 1 mps 696 mmHg 96%
08:00 +24°C° 1.9 mm 1 mps 696 mmHg 96%
09:00 +23°C° 1.9 mm 0 mps 696 mmHg 96%
10:00 +23°C° 1.9 mm 0 mps 696 mmHg 96%
11:00 +25°C° 1.6 mm 1 mps 696 mmHg 95%
12:00 +25°C° 1.6 mm 1 mps 695 mmHg 95%
13:00 +25°C° 1.6 mm 1 mps 695 mmHg 95%
14:00 +25°C° 0.1 mm 1 mps 695 mmHg 94%
15:00 +26°C° 0.1 mm 1 mps 695 mmHg 93%
16:00 +26°C° 0.1 mm 1 mps 695 mmHg 92%
17:00 +25°C° 0.1 mm 1 mps 694 mmHg 93%
18:00 +25°C° 0.1 mm 1 mps 694 mmHg 93%
19:00 +25°C° 0.1 mm 1 mps 694 mmHg 94%
20:00 +25°C° 0.1 mm 1 mps 695 mmHg 94%
21:00 +25°C° 0.1 mm 1 mps 695 mmHg 94%
22:00 +25°C° 0.1 mm 1 mps 695 mmHg 93%
23:00 +25°C° 0.2 mm 1 mps 694 mmHg 94%

15 June, Tuesday

Time Temperature Precipitation Wind Pressure Humidity
00:00 +24°C° 0.2 mm 1 mps 694 mmHg 94%
01:00 +24°C° 0.2 mm 1 mps 694 mmHg 94%
02:00 +24°C° 0.5 mm 1 mps 694 mmHg 95%
03:00 +24°C° 0.5 mm 1 mps 694 mmHg 95%
04:00 +24°C° 0.5 mm 1 mps 694 mmHg 96%
05:00 +24°C° 0.2 mm 1 mps 694 mmHg 95%
06:00 +25°C° 0.2 mm 1 mps 694 mmHg 95%
07:00 +25°C° 0.2 mm 1 mps 695 mmHg 94%
08:00 +26°C° 0.3 mm 1 mps 695 mmHg 92%
09:00 +26°C° 0.3 mm 1 mps 695 mmHg 90%
10:00 +27°C° 0.3 mm 1 mps 695 mmHg 88%
11:00 +28°C° 0.8 mm 1 mps 695 mmHg 84%
12:00 +27°C° 0.8 mm 0 mps 695 mmHg 81%
13:00 +28°C° 0.8 mm 0 mps 695 mmHg 77%
14:00 +28°C° 1.2 mm 0 mps 694 mmHg 78%
15:00 +28°C° 1.2 mm 0 mps 694 mmHg 78%
16:00 +28°C° 1.2 mm 0 mps 694 mmHg 79%
17:00 +27°C° 0.9 mm 0 mps 694 mmHg 82%
18:00 +26°C° 0.9 mm 0 mps 694 mmHg 86%
19:00 +27°C° 0.9 mm 1 mps 694 mmHg 89%
20:00 +27°C° 0.2 mm 1 mps 694 mmHg 90%
21:00 +26°C° 0.2 mm 1 mps 695 mmHg 91%
22:00 +26°C° 0.2 mm 1 mps 695 mmHg 92%
23:00 +26°C° 0.1 mm 1 mps 695 mmHg 92%

16 June, Wednesday

Time Temperature Precipitation Wind Pressure Humidity
00:00 +25°C° 0.1 mm 1 mps 695 mmHg 93%
01:00 +25°C° 0.1 mm 1 mps 695 mmHg 93%
02:00 +25°C° 0.3 mm 1 mps 695 mmHg 93%
03:00 +25°C° 0.3 mm 1 mps 695 mmHg 93%
04:00 +25°C° 0.3 mm 1 mps 695 mmHg 93%
05:00 +26°C° 0.2 mm 1 mps 695 mmHg 93%
06:00 +26°C° 0.2 mm 1 mps 696 mmHg 92%
07:00 +26°C° 0.2 mm 1 mps 696 mmHg 92%
08:00 +27°C° 0.2 mm 1 mps 696 mmHg 91%
09:00 +27°C° 0.2 mm 1 mps 696 mmHg 91%
10:00 +27°C° 0.2 mm 1 mps 696 mmHg 90%
11:00 +28°C° 0.1 mm 1 mps 696 mmHg 86%
12:00 +29°C° 0.1 mm 1 mps 696 mmHg 82%
13:00 +30°C° 0.1 mm 1 mps 696 mmHg 79%
14:00 +30°C° 0.4 mm 1 mps 696 mmHg 74%
15:00 +31°C° 0.4 mm 2 mps 696 mmHg 70%
16:00 +32°C° 0.4 mm 2 mps 696 mmHg 65%
17:00 +30°C° 0.4 mm 2 mps 696 mmHg 71%
18:00 +28°C° 0.4 mm 2 mps 696 mmHg 76%
19:00 +26°C° 0.4 mm 2 mps 696 mmHg 82%
20:00 +25°C° 0 mm 2 mps 696 mmHg 82%
21:00 +25°C° 0 mm 2 mps 697 mmHg 81%
22:00 +24°C° 0 mm 2 mps 697 mmHg 81%
23:00 +24°C° 0.1 mm 2 mps 697 mmHg 83%

17 June, Thursday

Time Temperature Precipitation Wind Pressure Humidity
00:00 +23°C° 0.1 mm 2 mps 696 mmHg 84%
01:00 +23°C° 0.1 mm 2 mps 696 mmHg 86%
02:00 +23°C° 0.1 mm 2 mps 696 mmHg 87%
03:00 +23°C° 0.1 mm 2 mps 696 mmHg 87%
04:00 +21°C° 0.1 mm 2 mps 696 mmHg 88%
05:00 +23°C° 0.2 mm 2 mps 696 mmHg 88%
06:00 +24°C° 0.2 mm 2 mps 697 mmHg 87%
07:00 +24°C° 0.2 mm 2 mps 697 mmHg 87%
08:00 +25°C° 0.4 mm 2 mps 697 mmHg 85%
09:00 +25°C° 0.4 mm 2 mps 697 mmHg 83%
10:00 +26°C° 0.4 mm 2 mps 697 mmHg 81%
11:00 +26°C° 0.3 mm 2 mps 697 mmHg 80%
12:00 +27°C° 0.3 mm 2 mps 697 mmHg 78%
13:00 +28°C° 0.3 mm 2 mps 697 mmHg 76%
14:00 +28°C° 0 mm 3 mps 697 mmHg 73%
15:00 +28°C° 0 mm 3 mps 696 mmHg 69%
16:00 +29°C° 0 mm 3 mps 696 mmHg 66%
17:00 +27°C° 0.1 mm 3 mps 697 mmHg 73%
18:00 +26°C° 0.1 mm 2 mps 697 mmHg 80%
19:00 +24°C° 0.1 mm 2 mps 697 mmHg 87%
20:00 +24°C° 0.5 mm 2 mps 697 mmHg 89%
21:00 +23°C° 0.5 mm 2 mps 698 mmHg 91%
22:00 +23°C° 0.5 mm 2 mps 698 mmHg 94%
23:00 +23°C° 0.3 mm 2 mps 698 mmHg 94%
Show more

We Need Your Consent

Meteoprog and our Service Providers may store and access personal data such as cookies, device identifiers or other similar technologies on your device and process such data to personalise content and ads, as well as provide social media features and to analyse the traffic.

  • Store and/or access information on your device

    Cookies, device identifiers or other information can be stored or accessed on your device for the purposes indicated above.

  • Personalised ads and content, ad and content measurement, audience insights, and products development

    Ads and content can be personalised based on a profile. More data can be added to better personalise ads and content. Ad and content performance can be measured. Insights about the audience who saw the ads and content can be derived. Such data can be used to develop or improve user’s experience, systems and software.

By clicking ‘I Agree’ you will allow the use of indicated cookies, device identifiers, web beacons or other similar technologies. Your settings can be changed in the browser on your device.

For certain purposes, legitimate interests may be relied on, rather than consent. You can read more about this in our Privacy and Cookie Policy.